Regional Weather Roundup
Issued by NWS Sterling, VA

Home | Current Version | Previous Version | Graphics & Text | Print | Product List | Glossary On
Versions: 1 2 3 4 5 6 7 8 9 10 11 12 13 14 15 16 17 18 19 20 21 22 23 24 25 26 27
000
ASUS41 KLWX 300210
RWRLWX

REGIONAL WEATHER ROUNDUP
NATIONAL WEATHER SERVICE BALTIMORE MD/WASHINGTON DC
1000 PM EDT FRI JUL 29 2016

Note: "FAIR" indicates few or no clouds below 12,000 feet
with no significant weather and/or obstructions to visibility.
 TC=TEMPERATURE CELSIUS

 * =Non NWS site. Station does not report precipitation (e.g. rain,
    snow, etc.), thunder, or fog.

DCZ001-MDZ009-015-VAZ040>042-051-053>054-300300-
WASHINGTON METRO

CITY           SKY/WX    TMP DP  RH WIND       PRES   REMARKS
WASHINGTON NAT FAIR      83  72  69 SW6       29.92R
DULLES         FAIR      78  70  76 CALM      29.93R
ANDREWS AFB    CLEAR     77  72  86 S3        29.92R
FT BELVOIR     FAIR      76  73  90 SE2       29.91R
LEESBURG*      FAIR      79  75  89 CALM      29.94R
MANASSAS*      CLEAR     77  73  88 CALM      29.93
GAITHERSBURG*  CLEAR     73  70  88 CALM      29.98R

$$

MDZ006>007-011-014-300300-
BALTIMORE METRO

CITY           SKY/WX    TMP DP  RH WIND       PRES   REMARKS
BWI AIRPORT    PTCLDY    78  73  84 CALM      29.91R
MD SCIENCE CTR   N/A     82  71  69 MISG      29.90S
MARTIN STATE   CLEAR     81  75  83 CALM      29.92R
ANNAPOLIS      CLEAR     81  74  79 CALM      29.91R
FORT MEADE*    CLEAR     73  72  94 CALM      29.93S

$$

MDZ012-015-019>023-300300-
MARYLAND EASTERN SHORE

CITY           SKY/WX    TMP DP  RH WIND       PRES   REMARKS
OCEAN CITY     CLEAR     76  72  87 CALM      29.93R
SALISBURY      NOT AVBL
BAY BRIDGE AP* CLEAR     81  72  74 CALM      29.91R
CAMBRIDGE*     CLEAR     73  72  94 CALM      29.92R
EASTON*        CLEAR     79  76  91 CALM      29.96R

$$

MDZ017>025-300300-
SOUTHERN MARYLAND

CITY           SKY/WX    TMP DP  RH WIND       PRES   REMARKS
PATUXENT RIVER NOT AVBL
ST INIGOES     CLEAR     77  74  90 CALM      29.91R
LEONARDTOWN*   CLEAR     73  72  94 CALM      29.94R

$$

MDZ003>005-300300-
NORTH CENTRAL MARYLAND

CITY           SKY/WX    TMP DP  RH WIND       PRES   REMARKS
FREDERICK*     CLEAR     73  73 100 SE3       29.95R
HAGERSTOWN APT CLEAR     82  69  64 S6        29.94R

$$

MDZ501>502-300300-
WESTERN MARYLAND

CITY           SKY/WX    TMP DP  RH WIND       PRES   REMARKS
OAKLAND*       CLEAR     68  63  83 CALM      30.07S
CUMBERLAND*    CLEAR     77  72  83 CALM      29.99R

$$

VAZ025>031-300300-
SHENANDOAH VALLEY

CITY           SKY/WX    TMP DP  RH WIND       PRES   REMARKS
WINCHESTER*    MOCLDY    73  70  88 CALM      29.95S
FRONT ROYAL*   FAIR      73  72  94 S3        29.94R
LURAY*         FAIR      75  73  94 CALM      29.96R
NEW MARKET*    FAIR     N/A N/A N/A W3        29.95S
STAUNTON*      FAIR      72  69  92 CALM      30.00R
WAYNESBORO*    FAIR      73  69  88 SW5       30.00R

$$

WVZ021-048>050-054>055-300300-
EASTERN WEST VIRGINIA PANHANDLE

CITY           SKY/WX    TMP DP  RH WIND       PRES   REMARKS
MARTINSBURG    FAIR      76  70  82 S5        29.93R
PETERSBURG*    FAIR      73  71  94 CALM      29.97S

$$

VAZ036>039-050-300300-
CENTRAL FOOTHILLS

CITY           SKY/WX    TMP DP  RH WIND       PRES   REMARKS
CHARLOTTESVILL FAIR      76  69  79 CALM      29.95R
CULPEPER*      FAIR      74  74  98 CALM      29.95R FOG
ORANGE*          N/A     75  75 100 CALM      29.96S
GORDONSVILLE*  FAIR      74  73  95 CALM      29.94R
WARRENTON*     FAIR      74  68  81 CALM      29.93R

$$

VAZ055>057-300300-
NORTH AND CENTRAL PIEDMONT

CITY           SKY/WX    TMP DP  RH WIND       PRES   REMARKS
FREDERICKSBRG* FAIR      78  74  88 CALM      29.92R
STAFFORD*      FAIR      73  72  95 CALM      29.97R FOG

$$

NCZ024-NYZ072-PAZ021-071-VAZ022-071-300300-
OTHER REGIONAL OBSERVATIONS

CITY           SKY/WX    TMP DP  RH WIND       PRES   REMARKS
NEW YORK CITY  CLEAR     77  67  71 CALM      29.93R
PHILADELPHIA   PTCLDY    80  71  74 S10       29.92R
PITTSBURGH     PTCLDY    76  65  68 NE9       29.96R
ROANOKE        MOCLDY    76  70  82 W6        30.00R
RICHMOND       FAIR      78  72  81 CALM      29.94R
RALEIGH        PTCLDY    80  71  74 CALM      29.95R

$$

ANZ530>537-300300-
MARINE OBSERVATIONS

STATION/POSITION TIME  TEMP    WIND        PRES
                       AIR SEA DIR/SP/G
                 (UTC) (F)     (DEG/KT/KT) (MB)
THOMAS PT LIGHT  0200   83 84  190/  8/  9 1014.3R
BALT KEY BRIDGE  0148          190/  5/  6 1012.5R
COVE POINT       0148          200/  5/  6 1013.6R
LEWISETTA        0148      87  220/  3/  4 1012.8R
SOLOMONS ISLAND  0148      85  190/  5/  5   N/A
PINEY POINT      0148          220/  4/  5   N/A

$$





USA.gov is the U.S. government's official web portal to all federal, state and local government web resources and services.